Content
SEND FEEDBACK

Daily
Averages
Monthly
Summary
United States of America

JACKSON, MONTANA


Home > North America > United States > Montana
Elevation: 1995 meters     Latitude: 45 22N     Longitude: 113 25W

WEATHER
 
SELECT A DAY
Number of Records: 457,184;   Date Range: 1/1/95 - 9/29/14
 
SHARE

PRINT THIS DATA

[ ← Previous Day ]
WEATHER ALMANAC - 31 JANUARY, 2013
[ Next Day → ]
[ °F ]   °C
Weather ElementAverageHighLow
Temperature2.1 °C5 °C (11:15 am)0 °C (2:55 am)
Dewpoint-2.7 °C-1 °C (3:55 pm)-5 °C (3:35 am)
Humidity71.4 %87 % (8:35 pm)56 % (3:35 am)
Barometer1021.7 hPa1022.7 hPa (9:15 am)1020.7 hPa (12:55 am)
Wind Speed2.3 km/h13 km/h (1:15 am)
Weather ElementAverage
Visibility16.1 km
Wind DirectionNNE (36.3 °)

Weather ElementTotal
Precipitation---
Heating Degree Days15.8 (Base 18.3)
Averaged from 64 records on 31 January, 2013
WEATHER CONDITIONS BREAKOUT
WIND DIRECTION BREAKOUT
WEATHER BY HOUR - 31 JANUARY, 2013
[ °F ]   °C
Local TimeTemperatureDewpointHumidityBarometerVisibilityWind DirectionWind SpeedGust SpeedPrecipitationEventsConditions
12:35 AM1 °C-4 °C70 %1021 hPa16.1 kmCalmMostly Cloudy
12:55 AM1 °C-3 °C75 %1020.7 hPa16.1 kmEast (90°)7.4 km/hMostly Cloudy
1:15 AM1 °C-4 °C70 %1021 hPa16.1 kmESE (110°)13 km/hMostly Cloudy
1:35 AM1 °C-4 °C70 %1021 hPa16.1 kmESE (120°)9.3 km/hMostly Cloudy
1:55 AM2 °C-4 °C65 %1021.3 hPa16.1 kmCalmMostly Cloudy
2:15 AM2 °C-4 °C65 %1021.3 hPa16.1 kmNW (310°)13 km/hOvercast
2:35 AM2 °C-4 °C65 %1021.3 hPa16.1 kmCalmMostly Cloudy
2:55 AM0 °C-4 °C75 %1021.3 hPa16.1 kmWSW (240°)11.1 km/hMostly Cloudy
3:15 AM2 °C-4 °C65 %1021.7 hPa16.1 kmENE (60°)5.6 km/hMostly Cloudy
3:35 AM3 °C-5 °C56 %1021.7 hPa16.1 kmCalmMostly Cloudy
3:55 AM2 °C-4 °C65 %1022 hPa16.1 kmCalmOvercast
4:15 AM2 °C-4 °C65 %1021.7 hPa16.1 kmSE (130°)11.1 km/hOvercast
4:35 AM3 °C-4 °C60 %1021.7 hPa16.1 kmCalmOvercast
4:55 AM3 °C-4 °C60 %1021.7 hPa16.1 kmEast (100°)5.6 km/hOvercast
5:35 AM3 °C-4 °C60 %1022 hPa16.1 kmSSE (160°)5.6 km/hOvercast
5:55 AM3 °C-4 °C60 %1021.7 hPa16.1 kmSE (140°)9.3 km/hOvercast
6:15 AM2 °C-4 °C65 %1021.7 hPa16.1 kmCalmOvercast
6:35 AM2 °C-4 °C65 %1021.7 hPa16.1 kmCalmOvercast
6:55 AM2 °C-4 °C65 %1022 hPa16.1 kmCalmOvercast
7:15 AM2 °C-4 °C65 %1022 hPa16.1 kmCalmOvercast
7:35 AM2 °C-4 °C65 %1022 hPa16.1 kmCalmOvercast
7:55 AM1 °C-4 °C70 %1022 hPa16.1 kmCalmOvercast
8:15 AM2 °C-4 °C65 %1022 hPa16.1 kmCalmOvercast
8:35 AM1 °C-4 °C70 %1022 hPa16.1 kmCalmOvercast
8:55 AM1 °C-3 °C75 %1022.4 hPa16.1 kmCalmOvercast
9:15 AM1 °C-3 °C75 %1022.7 hPa16.1 kmCalmOvercast
9:35 AM2 °C-3 °C70 %1022.7 hPa16.1 kmCalmOvercast
9:55 AM2 °C-4 °C65 %1022.7 hPa16.1 kmESE (110°)7.4 km/hOvercast
10:15 AM3 °C-2 °C70 %1022.7 hPa16.1 kmCalmOvercast
10:35 AM4 °C-2 °C65 %1022.7 hPa16.1 kmCalmOvercast
10:55 AM4 °C-2 °C65 %1022.7 hPa16.1 kmCalmOvercast
11:15 AM5 °C-3 °C57 %1022.7 hPa16.1 kmCalmOvercast
11:35 AM4 °C-2 °C65 %1022.7 hPa16.1 kmCalmOvercast
11:55 AM4 °C-2 °C65 %1022.7 hPa16.1 kmCalmOvercast
12:35 PM3 °C-2 °C70 %1022.4 hPa16.1 kmCalmOvercast
12:55 PM3 °C-2 °C70 %1022.4 hPa16.1 kmCalmOvercast
1:15 PM3 °C-2 °C70 %1022.4 hPa16.1 kmNNE (20°)5.6 km/hOvercast
1:35 PM3 °C-3 °C65 %1022.4 hPa16.1 kmCalmOvercast
1:55 PM3 °C-2 °C70 %1022.4 hPa16.1 kmSE (140°)5.6 km/hOvercast
2:15 PM3 °C-2 °C70 %1022 hPa16.1 kmCalmOvercast
2:35 PM3 °C-2 °C70 %1021.7 hPa16.1 kmCalmOvercast
3:15 PM3 °C-2 °C70 %1022 hPa16.1 kmCalmOvercast
3:35 PM4 °C-2 °C65 %1021.7 hPa16.1 kmCalmOvercast
3:55 PM3 °C-1 °C75 %1021.7 hPa16.1 kmCalmOvercast
4:15 PM3 °C-2 °C70 %1021.7 hPa16.1 kmCalmOvercast
4:35 PM3 °C-2 °C70 %1021.7 hPa16.1 kmCalmOvercast
5:15 PM2 °C-1 °C81 %1021.7 hPa16.1 kmCalmOvercast
5:35 PM2 °C-2 °C75 %1021.7 hPa16.1 kmCalmMostly Cloudy
5:55 PM2 °C-2 °C75 %1021.7 hPa16.1 kmCalmMostly Cloudy
6:15 PM1 °C-2 °C81 %1021.7 hPa16.1 kmSE (130°)7.4 km/hOvercast
6:35 PM1 °C-2 °C81 %1021.7 hPa16.1 kmSSE (150°)5.6 km/hOvercast
6:55 PM1 °C-2 °C81 %1021.3 hPa16.1 kmCalmOvercast
7:35 PM2 °C-2 °C75 %1021.7 hPa16.1 kmESE (110°)5.6 km/hOvercast
8:15 PM1 °C-2 °C81 %1021.7 hPa16.1 kmCalmOvercast
8:35 PM1 °C-1 °C87 %1021.3 hPa16.1 kmCalmOvercast
8:55 PM1 °C-1 °C87 %1021.3 hPa16.1 kmCalmOvercast
9:15 PM1 °C-1 °C87 %1021.3 hPa16.1 kmCalmOvercast
9:35 PM0 °C-2 °C87 %1021.3 hPa16.1 kmCalmOvercast
9:55 PM1 °C-1 °C87 %1021.3 hPa16.1 kmSE (130°)7.4 km/hOvercast
10:15 PM0 °C-2 °C87 %1021 hPa14.5 kmCalmOvercast
10:35 PM1 °C-1 °C87 %1020.7 hPa16.1 kmCalmOvercast
11:15 PM0 °C-2 °C87 %1020.7 hPa16.1 kmENE (70°)5.6 km/hOvercast
11:35 PM1 °C-2 °C81 %1020.7 hPa16.1 kmCalmOvercast
11:55 PM1 °C-2 °C81 %1020.7 hPa12.9 kmCalmOvercast
Hourly data recorded from KSMN, located 0 kilometers away from Jackson, Montana







STORIES FROM OUR PARTNERS